EUTELSAT 172A (GE-23)

Last updated on Wed Dec 19 2018 00:08:33 GMT+0000 (Coordinated Universal Time)

1 28924U 05052A 18352.50752913 .00000026 00000-0 00000+0 0 9995 2 28924 0.0632 10.2773 0005956 253.9750 179.5257 1.00271443 47531
UTC large
Height (km)
Speed (km/s)
/
Latitude / Longitude
Inclination (degrees)
Orbital Period (minutes)
Azimuth
Elevation
Range (km)
Doppler Factor

Next 0 passes for location: London (51.5072 / 0.1276)

Sorry there are no passes over London.